SCP
0 0 0 0 0 0 0 0 0 0 0 0 0 0 0 0 0 0 0 0 0 0 0 0 0 0 0 0 0 0 0 0 0 0 0 0 0 0 0 0 0 0 0 0
0 0 0 0 0 0 0 0 0 0 0 0 0 0 0 0 0 0 0 0 0 0 0 0 0 0 0 0 0 0 0 0 0 0 0 0 0 0 0 0 0 0 0 0
0 0 0 0 0 0 0 0 0 0 0 0 0 0 0 0 0 0 0 0 0 0 0 0 0 0 0 0 0 0 0 0 0 0 0 0 0 0 0 0 0 0 0 0
0 0 0 0 0 0 0 0 0 0 0 0 0 0 0 0 0 0 0 0 0 0 0 0 0 0 0 0 0 0 0 0 0 0 0 0 0 0 0 0 0 0 0 0
0 0 0 0 0 0 0 0 0 0 0 0 0 0 0 0 0 0 0 0 0 0 0 0 0 0 0 0 0 0 0 0 0 0 0 0 0 0 0 0 0 0 0 0
0 0 0 0 0 0 0 0 0 0 0 0 0 0 0 0 0 0 0 0 0 0 0 0 0 0 0 0 0 0 0 0 0 0 0 0 0 0 0 0 0 0 0 0
0 0 0 0 0 0 0 0 0 0 0 0 0 0 0 0 0 0 0 0 0 0 0 0 0 0 0 0 0 0 0 0 0 0 0 0 0 0 0 0 0 0 0 0
0 0 0 0 0 0 0 0 0 0 0 0 0 0 0 0 0 0 0 0 0 0 0 0 0 0 0 0 0 0 0 0 0 0 0 0 0 0 0 0 0 0 0 0
0 0 0 0 0 0 0 0 0 0 0 0 0 0 0 0 0 0 0 0 0 0 0 0 0 0 0 0 0 0 0 0 0 0 0 0 0 0 0 0 0 0 0 0
0 0 0 0 0 0 0 0 0 0 0 0 0 0 0 0 0 0 0 0 0 0 0 0 0 0 0 0 0 0 0 0 0 0 0 0 0 0 0 0 0 0 0 0
0 0 0 0 0 0 0 0 0 0 0 0 0 0 0 0 0 0 0 0 0 0 0 0 0 0 0 0 0 0 0 0 0 0 0 0 0 0 0 0 0 0 0 0
0 0 0 0 0 0 0 0 0 0 0 0 0 0 0 0 0 0 0 0 0 0 0 0 0 0 0 0 0 0 0 0 0 0 0 0 0 0 0 0 0 0 0 0
0 0 0 0 0 0 0 0 0 0 0 0 0 0 0 0 0 0 0 0 0 0 0 0 0 0 0 0 0 0 0 0 0 0 0 0 0 0 0 0 0 0 0 0
0 0 0 0 0 0 0 0 0 0 0 0 0 0 0 0 0 0 0 0 0 0 0 0 0 0 0 0 0 0 0 0 0 0 0 0 0 0 0 0 0 0 0 0
0 0 0 0 0 0 0 0 0 0 0 0 0 0 0 0 0 0 0 0 0 0 0 0 0 0 0 0 0 0 0 0 0 0 0 0 0 0 0 0 0 0 0 0
0 0 0 0 0 0 0 0 0 0 0 0 0 0 0 0 0 0 0 0 0 0 0 0 0 0 0 0 0 0 0 0 0 0 0 0 0 0 0 0 0 0 0 0
0 0 0 0 0 0 0 0 0 0 0 0 0 0 0 0 0 0 0 0 0 0 0 0 0 0 0 0 0 0 0 0 0 0 0 0 0 0 0 0 0 0 0 0
0 0 0 0 0 0 0 0 0 0 0 0 0 0 0 0 0 0 0 0 0 0 0 0 0 0 0 0 0 0 0 0 0 0 0 0 0 0 0 0 0 0 0 0
0 0 0 0 0 0 0 0 0 0 0 0 0 0 0 0 0 0 0 0 0 0 0 0 0 0 0 0 0 0 0 0 0 0 0 0 0 0 0 0 0 0 0 0
0 0 0 0 0 0 0 0 0 0 0 0 0 0 0 0 0 0 0 0 0 0 0 0 0 0 0 0 0 0 0 0 0 0 0 0 0 0 0 0 0 0 0 0
0 0 0 0 0 0 0 0 0 0 0 0 0 0 0 0 0 0 0 0 0 0 0 0 0 0 0 0 0 0 0 0 0 0 0 0 0 0 0 0 0 0 0 0
0 0 0 0 0 0 0 0 0 0 0 0 0 0 0 0 0 0 0 0 0 0 0 0 0 0 0 0 0 0 0 0 0 0 0 0 0 0 0 0 0 0 0 0
0 0 0 0 0 0 0 0 0 0 0 0 0 0 0 0 0 0 0 0 0 0 0 0 0 0 0 0 0 0 0 0 0 0 0 0 0 0 0 0 0 0 0 0
0 0 0 0 0 0 0 0 0 0 0 0 0 0 0 0 0 0 0 0 0 0 0 0 0 0 0 0 0 0 0 0 0 0 0 0 0 0 0 0 0 0 0 0
0 0 0 0 0 0 0 0 0 0 0 0 0 0 0 0 0 0 0 0 0 0 0 0 0 0 0 0 0 0 0 0 0 0 0 0 0 0 0 0 0 0 0 0
0 0 0 0 0 0 0 0 0 0 0 0 0 0 0 0 0 0 0 0 0 0 0 0 0 0 0 0 0 0 0 0 0 0 0 0 0 0 0 0 0 0 0 0
0 0 0 0 0 0 0 0 0 0 0 0 0 0 0 0 0 0 0 0 0 0 0 0 0 0 0 0 0 0 0 0 0 0 0 0 0 0 0 0 0 0 0 0
Wind_Speed
9 8 7 9 10 9 11 11 11 12 12 13 9 8 7 6 6 5 5 5 5 4 4 3 3 3 3 3 3 3 3 3 4 4 4 4 4 5 5 5 6 6 6 6
7 7 7 10 13 13 14 14 14 15 16 11 7 5 6 6 5 6 6 6 6 5 5 4 4 4 4 3 3 3 4 4 4 4 4 4 4 4 5 5 5 5 6 6
6 4 6 11 10 11 10 10 11 13 11 5 5 6 6 6 6 7 7 6 6 6 5 5 4 4 4 4 3 3 4 4 4 4 4 4 4 4 4 5 5 5 6 6
4 3 9 4 1 5 9 10 11 10 8 7 7 7 6 6 6 6 6 6 6 5 5 5 4 4 3 3 3 4 4 4 4 3 4 3 4 4 4 4 5 5 5 6
4 6 10 6 3 4 6 8 7 9 8 7 5 5 5 3 4 5 5 5 5 5 5 4 4 3 3 3 3 3 4 4 4 4 4 4 4 4 3 3 4 4 5 5
5 6 8 3 1 1 3 7 3 5 6 5 4 5 3 3 4 5 5 4 4 4 3 3 3 3 3 3 3 4 4 4 4 4 3 4 4 4 3 3 3 3 4 4
7 8 9 2 2 3 5 3 1 2 4 4 5 5 5 5 5 4 4 4 4 3 3 3 3 2 3 3 4 4 4 3 3 3 3 3 3 3 3 3 3 3 3 4
6 8 8 4 5 6 3 2 2 3 3 4 6 5 5 5 5 5 5 5 4 3 3 3 2 2 3 4 4 4 3 3 3 3 2 2 2 2 3 3 3 3 3 3
7 6 2 4 5 2 1 3 3 4 4 5 5 5 5 5 5 4 4 4 4 3 3 3 3 3 4 4 4 3 2 2 2 2 2 2 2 2 2 3 3 3 2 2
6 8 5 4 5 4 4 4 4 4 5 4 5 5 5 4 4 4 4 4 3 3 3 4 3 4 4 4 3 2 2 2 2 1 2 1 1 2 2 2 2 2 2 2
8 7 5 5 5 6 5 4 5 5 4 5 5 5 5 5 4 4 4 3 3 3 4 5 4 4 4 3 2 2 2 2 2 1 1 1 1 1 2 2 3 3 2 2
7 4 4 4 2 3 4 5 5 5 5 5 4 5 5 5 4 4 4 4 4 4 4 4 4 4 4 3 2 2 2 2 1 1 1 1 1 1 1 1 2 2 2 2
5 2 4 5 4 2 4 5 5 4 4 5 4 4 4 4 4 3 3 4 4 4 4 4 4 4 4 3 2 2 2 2 2 1 1 1 1 0 0 1 1 0 1 1
4 3 4 4 4 3 4 4 3 3 3 3 3 3 3 3 3 3 4 4 4 3 4 3 3 4 4 3 2 2 2 2 2 1 1 1 1 1 1 1 0 0 0 1
4 4 5 4 3 3 3 3 3 3 3 3 3 3 3 3 3 4 4 3 3 3 3 3 3 4 3 2 2 2 2 2 1 1 1 1 1 1 1 1 1 1 1 1
4 3 3 4 5 4 3 3 4 4 4 4 3 3 3 3 3 3 3 2 2 3 3 3 4 4 3 2 2 2 2 2 1 1 1 1 1 1 1 1 1 1 1 1
2 3 3 4 5 4 4 4 5 5 4 4 4 3 3 2 2 2 3 2 3 3 3 4 4 3 3 2 2 2 1 1 1 1 1 1 1 1 1 1 1 1 1 1
4 5 4 4 4 5 5 4 4 4 4 3 3 2 2 2 3 3 3 3 3 3 3 3 3 3 3 2 2 1 1 1 1 1 1 1 1 1 1 1 1 1 1 1
3 3 3 3 3 3 3 3 3 3 3 2 2 2 2 3 3 3 2 2 2 3 3 3 4 3 3 3 2 1 1 1 1 1 0 1 0 0 1 1 1 1 1 1
2 2 2 2 2 2 2 2 2 2 2 1 1 1 2 2 2 2 2 2 2 3 3 3 3 3 3 2 2 1 1 1 1 0 0 1 1 1 1 1 1 1 1 1
2 1 1 1 2 2 2 2 1 2 2 1 1 2 2 3 2 2 2 2 3 3 3 3 2 2 2 2 2 1 1 1 1 1 1 1 1 1 1 0 1 1 1 1
1 1 1 1 1 2 2 1 1 1 1 1 1 1 2 2 2 2 2 2 3 4 3 2 2 3 3 2 0 0 0 1 1 0 1 1 1 1 1 1 1 0 0 0
1 1 1 1 1 1 2 2 1 1 1 2 2 2 2 2 2 2 2 2 2 3 2 2 3 3 2 1 1 0 0 0 0 0 1 1 1 1 1 1 1 1 1 1
1 1 1 1 0 1 1 2 2 2 2 2 2 2 2 2 2 2 2 3 4 3 2 3 3 3 2 1 1 1 0 0 1 1 1 1 1 1 1 1 1 1 1 1
0 0 0 0 0 1 1 2 2 2 2 2 3 3 2 2 2 2 2 2 3 3 2 2 3 3 1 1 1 1 1 1 1 1 1 1 1 1 1 1 1 1 1 2
0 1 1 1 1 1 1 1 1 1 2 2 2 2 2 2 2 2 2 2 2 2 2 2 2 2 1 1 1 1 1 1 1 1 1 1 1 1 1 1 2 2 2 2
0 0 0 1 1 1 1 1 1 2 2 2 2 2 2 2 2 2 2 2 2 2 2 1 1 1 1 1 1 1 1 1 1 1 1 1 1 1 1 2 2 2 2 2
Wind_Direction
262 273 266 260 256 237 228 238 249 261 264 273 277 281 287 291 293 294 293 293 288 283 285 287 290 288 282 280 279 268 260 260 262 264 255 244 237 230 224 222 222 219 218 217
266 264 266 267 259 246 242 244 250 264 271 276 285 286 285 288 289 286 290 292 289 287 286 283 285 289 286 284 286 277 260 260 265 266 254 243 239 233 225 222 221 217 216 215
265 290 283 262 245 229 228 229 234 248 261 286 283 281 282 286 283 283 289 291 289 287 285 285 284 283 280 283 284 273 267 266 263 262 260 249 241 232 228 223 220 219 218 217
270 274 248 263 133 223 238 250 241 250 266 272 278 288 283 274 275 286 292 291 290 290 289 292 292 289 288 282 272 270 271 273 266 258 262 257 241 235 234 229 222 221 223 223
231 253 270 271 221 208 230 266 239 241 262 274 295 291 267 256 277 278 285 291 291 289 289 291 287 289 284 273 270 271 273 277 277 262 253 251 242 239 236 228 229 227 225 224
219 241 257 283 141 194 226 261 226 231 261 277 285 276 294 350 317 302 304 307 307 308 303 296 299 297 275 269 270 272 279 281 279 271 261 250 245 238 234 226 226 227 227 226
229 243 262 286 141 178 228 282 36 247 263 262 251 272 312 318 311 308 310 313 313 306 300 298 300 290 278 280 279 286 290 283 275 270 263 256 252 239 223 219 219 222 226 231
210 226 249 142 156 208 260 346 287 279 269 261 264 288 296 296 302 310 315 318 316 305 304 310 302 284 281 283 293 299 292 276 268 270 269 256 243 233 215 204 207 215 219 230
210 232 303 170 201 236 299 278 284 286 282 271 273 279 285 287 292 302 308 311 312 304 305 313 305 286 279 293 304 301 290 279 273 272 271 262 240 223 212 204 206 210 214 220
248 257 256 244 251 263 256 258 278 285 283 271 268 273 277 282 288 296 300 303 306 304 300 303 305 296 288 294 293 284 281 285 285 272 276 277 254 229 216 207 206 208 210 216
251 270 284 255 240 255 265 275 282 285 277 269 265 270 274 281 285 290 293 297 294 288 289 293 300 299 299 294 283 276 279 281 280 280 285 287 281 267 252 249 231 219 218 218
244 244 243 274 296 279 270 271 273 280 285 279 263 266 273 275 279 283 287 292 290 288 288 292 296 296 296 290 275 264 269 273 268 263 264 268 282 338 345 285 281 261 246 246
260 282 263 280 291 294 283 284 284 275 277 285 281 268 268 275 280 283 283 283 283 285 288 290 292 292 294 293 279 261 261 267 266 260 252 248 240 216 359 20 32 244 218 215
264 274 272 271 285 303 299 301 301 298 295 292 291 282 269 273 279 281 281 284 286 287 286 284 287 291 298 293 275 268 265 265 264 256 249 241 235 229 211 195 207 99 126 154
260 256 261 281 295 303 311 313 310 307 309 308 301 288 276 270 274 282 290 294 293 289 288 289 289 293 300 290 275 273 271 267 266 268 256 246 239 230 211 197 185 170 130 109
286 274 263 267 275 289 299 299 290 291 297 298 295 288 285 277 279 288 298 296 280 288 295 293 289 298 300 285 281 276 269 275 280 267 243 231 226 219 197 182 180 183 191 181
265 270 270 275 276 281 280 277 277 283 289 287 287 293 295 294 296 300 305 300 284 284 291 286 292 305 299 284 274 272 272 254 254 247 221 216 208 211 208 201 202 207 213 185
249 262 261 263 269 276 283 284 282 284 283 289 295 292 287 281 282 294 304 310 305 304 301 301 305 307 301 293 283 279 273 261 247 233 228 226 213 209 209 196 186 188 165 148
261 264 271 271 272 272 279 283 284 286 291 287 278 277 282 284 287 297 309 309 303 304 312 314 312 313 303 295 298 283 269 263 265 251 227 209 200 179 171 174 175 169 151 143
303 298 292 294 301 282 281 291 292 294 297 289 280 292 299 300 302 303 302 293 292 298 308 308 306 306 304 295 295 272 247 242 246 244 213 201 194 174 163 160 148 130 124 128
298 305 303 304 313 312 302 297 289 296 311 305 280 287 298 309 312 303 297 305 320 321 317 314 319 309 300 293 275 250 225 223 229 233 217 199 182 162 151 149 148 150 147 148
287 287 292 301 312 321 329 326 310 304 318 320 309 303 305 307 313 306 284 289 315 323 326 313 315 315 322 332 186 192 209 212 222 224 223 218 207 202 194 189 190 182 182 192
271 273 283 284 290 317 340 340 331 321 316 311 303 296 289 290 295 295 303 313 318 323 328 319 322 326 344 47 54 53 251 226 231 231 232 234 229 225 221 216 220 213 210 212
280 290 302 327 17 351 338 341 343 333 320 310 306 298 291 294 297 293 302 317 325 325 327 323 334 348 29 56 41 24 356 308 266 248 239 236 237 235 236 233 234 236 229 230
272 298 7 161 264 291 317 338 344 338 333 327 328 327 310 292 290 307 316 321 325 332 333 338 352 358 17 17 13 349 330 310 295 283 261 249 246 241 243 240 237 240 243 243
235 244 256 263 275 295 312 321 321 321 321 323 326 329 326 321 317 319 322 326 328 334 336 330 332 333 338 336 331 322 319 318 317 314 293 279 268 261 256 251 248 246 246 247
332 307 297 300 303 303 304 294 292 300 304 303 309 317 321 324 325 327 326 325 326 325 326 329 330 324 320 315 311 308 305 305 303 294 285 276 270 264 262 259 263 262 258 251